Date String (YYYY-MM-DD hh:mm:ss) UTC,Instrument flags,absolute air pressure of the measurement (hPa),sample flow rate (lpm),inlet stack bypass flow (lpm),air temperature of the measurement (°C),ambient temperature measured by the external sensor (°C),aerosol sample conditioner tube jacket temperature (°C),OPC LED temperature (°C),internal box temperature (°C),relative humidity of the measurement (%),span deviation,mass concentration of particles derived from Lorenz-Mie calculation of OPC scattering (μg/m³),mass concentration of particles derived from Lorenz-Mie calculation of OPC scattering (μg/m³),mass concentration of particles derived from Lorenz-Mie calculation of OPC scattering (μg/m³)
DateTimeUTC,F1_M11,P_M11,Q1_M11,Q2_M11,T1_M11,T2_M11,T3_M11,T4_M11,T5_M11,U1_M11,ZSPAN_M11,X2_M11,X0_M11,X1_M11
2023-07-13 19:00:00,SystemResetWarning,0831.1,4.99,000.00,028.6,026.6,000.0,036.8,030.3,20.8,0000.0,0005.01,0015.19,0004.11
2023-07-13 19:01:00,SystemResetWarning,0831.1,5.00,000.00,028.6,025.1,000.0,036.7,030.1,22.0,0000.0,0005.01,0015.20,0004.09
2023-07-13 19:02:00,SystemResetWarning,0831.1,5.02,000.00,028.5,024.9,000.0,036.7,029.9,20.5,0000.0,0005.02,0015.25,0004.08
2023-07-13 19:03:00,SystemResetWarning,0831.1,4.99,000.00,028.5,025.2,000.0,036.7,029.9,20.4,0000.0,0004.97,0014.79,0004.06
2023-07-13 19:04:00,SystemResetWarning,0831.1,5.00,000.00,028.4,025.7,000.0,036.7,029.9,20.7,0000.0,0004.92,0014.45,0004.02
2023-07-13 19:05:00,SystemResetWarning,0831.1,5.00,000.00,028.5,026.1,000.0,036.8,030.0,19.3,0000.0,0004.89,0014.00,0004.00
2023-07-13 19:06:00,SystemResetWarning,0831.1,4.99,000.00,028.5,026.5,000.0,036.8,030.1,20.2,0000.0,0004.84,0013.46,0003.97
2023-07-13 19:07:00,SystemResetWarning,0831.0,5.00,000.00,028.5,026.9,000.0,036.8,030.2,20.8,0000.0,0004.80,0013.02,0003.95
2023-07-13 19:08:00,SystemResetWarning,0831.1,5.00,000.00,028.6,027.2,000.0,036.9,030.3,20.2,0000.0,0004.80,0013.10,0003.93
2023-07-13 19:09:00,SystemResetWarning,0831.1,4.99,000.00,028.6,026.6,000.0,036.8,030.3,19.4,0000.0,0004.81,0013.07,0003.92
2023-07-13 19:10:00,SystemResetWarning,0831.1,4.99,000.00,028.6,025.0,000.0,036.7,030.0,19.4,0000.0,0004.85,0012.78,0003.92
2023-07-13 19:11:00,SystemResetWarning,0831.0,5.01,000.00,028.5,024.7,000.0,036.6,029.9,20.4,0000.0,0004.81,0012.32,0003.92
2023-07-13 19:12:00,SystemResetWarning,0831.0,5.01,000.00,028.5,025.1,000.0,036.7,029.9,21.0,0000.0,0004.74,0011.58,0003.89
2023-07-13 19:13:00,SystemResetWarning,0830.9,5.00,000.00,028.4,025.5,000.0,036.7,029.9,19.7,0000.0,0004.71,0010.81,0003.86
2023-07-13 19:14:00,SystemResetWarning,0830.9,5.00,000.00,028.4,026.0,000.0,036.8,030.0,20.7,0000.0,0004.71,0011.17,0003.86
2023-07-13 19:15:00,SystemResetWarning,0830.9,5.00,000.00,028.5,026.4,000.0,036.8,030.1,20.2,0000.0,0004.68,0011.71,0003.86
2023-07-13 19:16:00,SystemResetWarning,0830.9,5.00,000.00,028.5,026.8,000.0,036.8,030.1,20.7,0000.0,0004.66,0012.47,0003.87
2023-07-13 19:17:00,SystemResetWarning,0830.9,5.00,000.00,028.6,027.1,000.0,036.8,030.2,20.9,0000.0,0004.68,0012.67,0003.89
2023-07-13 19:18:00,SystemResetWarning,0830.9,5.00,000.00,028.6,027.2,000.0,036.9,030.3,22.4,0000.0,0004.73,0012.87,0003.90
2023-07-13 19:19:00,SystemResetWarning,0830.9,4.98,000.00,028.6,026.0,000.0,036.8,030.2,21.5,0000.0,0004.74,0013.08,0003.90
2023-07-13 19:20:00,SystemResetWarning,0830.8,5.01,000.00,028.5,024.7,000.0,036.7,029.9,20.8,0000.0,0004.73,0012.44,0003.91
2023-07-13 19:21:00,SystemResetWarning,0830.8,5.01,000.00,028.5,024.9,000.0,036.6,029.9,21.0,0000.0,0004.69,0011.54,0003.92
2023-07-13 19:22:00,SystemResetWarning,0830.8,5.00,000.00,028.4,025.3,000.0,036.7,029.8,20.0,0000.0,0004.69,0011.27,0003.92
2023-07-13 19:23:00,SystemResetWarning,0830.8,5.00,000.00,028.4,025.7,000.0,036.7,029.9,21.1,0000.0,0004.69,0011.16,0003.95
2023-07-13 19:24:00,SystemResetWarning,0830.9,5.00,000.00,028.4,026.1,000.0,036.8,030.0,20.4,0000.0,0004.66,0010.98,0003.96
2023-07-13 19:25:00,SystemResetWarning,0830.9,5.00,000.00,028.5,026.5,000.0,036.8,030.1,21.3,0000.0,0004.67,0010.72,0003.97
2023-07-13 19:26:00,SystemResetWarning,0830.9,5.00,000.00,028.5,026.9,000.0,036.8,030.2,20.8,0000.0,0004.72,0010.62,0003.99
2023-07-13 19:27:00,SystemResetWarning,0830.9,5.00,000.00,028.6,027.1,000.0,036.8,030.3,20.7,0000.0,0004.75,0010.78,0003.98
2023-07-13 19:28:00,SystemResetWarning,0830.9,4.98,000.00,028.6,026.0,000.0,036.8,030.1,20.7,0000.0,0004.75,0010.77,0003.96
2023-07-13 19:29:00,SystemResetWarning,0830.9,5.01,000.00,028.5,024.7,000.0,036.7,029.9,20.1,0000.0,0004.75,0010.85,0003.96
2023-07-13 19:30:00,SystemResetWarning,0830.8,5.01,000.00,028.4,024.9,000.0,036.6,029.8,20.7,0000.0,0004.72,0010.80,0003.94
2023-07-13 19:31:00,SystemResetWarning,0830.9,4.99,000.00,028.4,025.3,000.0,036.7,029.8,20.7,0000.0,0004.73,0011.65,0003.93
2023-07-13 19:32:00,SystemResetWarning,0830.9,5.00,000.00,028.4,025.7,000.0,036.7,029.9,21.6,0000.0,0004.74,0011.97,0003.92
2023-07-13 19:33:00,SystemResetWarning,0830.9,4.99,000.00,028.4,026.2,000.0,036.7,030.0,21.3,0000.0,0004.74,0012.21,0003.91
2023-07-13 19:34:00,SystemResetWarning,0830.9,4.99,000.00,028.4,026.6,000.0,036.8,030.0,21.2,0000.0,0004.77,0012.80,0003.91
2023-07-13 19:35:00,SystemResetWarning,0830.9,5.00,000.00,028.5,026.9,000.0,036.8,030.2,21.8,0000.0,0004.76,0012.65,0003.90
2023-07-13 19:36:00,SystemResetWarning,0830.8,5.00,000.00,028.5,027.2,000.0,036.8,030.3,20.6,0000.0,0004.74,0012.98,0003.90
2023-07-13 19:37:00,SystemResetWarning,0830.8,4.99,000.00,028.6,027.0,000.0,036.8,030.3,21.3,0000.0,0004.69,0013.18,0003.89
2023-07-13 19:38:00,SystemResetWarning,0830.8,4.99,000.00,028.5,025.4,000.0,036.7,030.0,21.9,0000.0,0004.73,0012.31,0003.90
2023-07-13 19:39:00,SystemResetWarning,0830.8,5.02,000.00,028.5,024.8,000.0,036.6,029.9,20.6,0000.0,0004.80,0012.32,0003.92
2023-07-13 19:40:00,SystemResetWarning,0830.8,5.00,000.00,028.4,025.1,000.0,036.6,029.9,20.6,0000.0,0004.80,0012.12,0003.93
2023-07-13 19:41:00,SystemResetWarning,0830.8,4.99,000.00,028.4,025.5,000.0,036.7,029.8,21.5,0000.0,0004.82,0011.97,0003.96
2023-07-13 19:42:00,SystemResetWarning,0830.9,5.00,000.00,028.4,025.9,000.0,036.7,029.9,22.0,0000.0,0004.78,0011.20,0003.97
2023-07-13 19:43:00,SystemResetWarning,0830.8,5.01,000.00,028.4,026.3,000.0,036.8,030.0,22.3,0000.0,0004.81,0011.81,0003.98
2023-07-13 19:44:00,SystemResetWarning,0830.9,5.00,000.00,028.5,026.7,000.0,036.8,030.2,21.6,0000.0,0004.84,0012.50,0003.99
2023-07-13 19:45:00,SystemResetWarning,0830.9,4.99,000.00,028.5,027.1,000.0,036.8,030.2,22.3,0000.0,0004.84,0012.46,0003.99
2023-07-13 19:46:00,SystemResetWarning,0830.9,4.99,000.00,028.6,027.0,000.0,036.8,030.3,22.8,0000.0,0004.90,0012.73,0004.01
2023-07-13 19:47:00,SystemResetWarning,0830.8,5.00,000.00,028.6,025.5,000.0,036.7,030.1,23.0,0000.0,0004.95,0012.37,0004.03
2023-07-13 19:48:00,SystemResetWarning,0830.8,5.00,000.00,028.5,024.7,000.0,036.6,029.9,22.9,0000.0,0005.01,0012.85,0004.05
2023-07-13 19:49:00,SystemResetWarning,0830.8,5.01,000.00,028.4,025.0,000.0,036.6,029.8,24.3,0000.0,0004.94,0013.22,0004.06
2023-07-13 19:50:00,SystemResetWarning,0830.8,4.99,000.00,028.4,025.4,000.0,036.7,029.8,21.8,0000.0,0004.91,0013.50,0004.07
2023-07-13 19:51:00,SystemResetWarning,0830.8,5.00,000.00,028.4,025.8,000.0,036.7,029.9,22.4,0000.0,0004.94,0013.90,0004.07
2023-07-13 19:52:00,SystemResetWarning,0830.8,5.01,000.00,028.4,026.3,000.0,036.7,030.0,23.0,0000.0,0004.99,0015.16,0004.07
2023-07-13 19:53:00,SystemResetWarning,0830.8,5.00,000.00,028.5,026.6,000.0,036.8,030.1,25.0,0000.0,0005.03,0015.40,0004.08
2023-07-13 19:54:00,SystemResetWarning,0830.7,5.00,000.00,028.5,027.0,000.0,036.8,030.2,22.6,0000.0,0005.09,0014.98,0004.11
2023-07-13 19:55:00,SystemResetWarning,0830.7,4.99,000.00,028.6,027.0,000.0,036.8,030.2,22.4,0000.0,0005.12,0014.45,0004.14
2023-07-13 19:56:00,SystemResetWarning,0830.7,4.99,000.00,028.5,025.5,000.0,036.7,030.0,22.9,0000.0,0005.16,0014.92,0004.15
2023-07-13 19:57:00,SystemResetWarning,0830.7,5.01,000.00,028.4,024.6,000.0,036.6,029.8,21.6,0000.0,0005.19,0016.68,0004.17
2023-07-13 19:58:00,SystemResetWarning,0830.7,5.01,000.00,028.4,024.9,000.0,036.6,029.8,22.5,0000.0,0005.23,0017.48,0004.18
2023-07-13 19:59:00,SystemResetWarning,0830.7,4.99,000.00,028.4,025.3,000.0,036.6,029.8,22.7,0000.0,0005.24,0016.96,0004.19
